User: anonymous   Login
Location: Unspecified
(0.0000°N, 0.0000°E)
Time: 11:57:42
(UTC+01:00)
Language:

Iridium 15 - Orbit

View from above orbital plane
View from above orbital plane
View from above satellite
View from above satellite

Ground track
Ground track

The orbit data is extracted from the following two-line orbital elements,

1 24869U 97034A   14326.49014575  .00000588  00000-0  20297-3 0  1663
2 24869 086.3983 053.7792 0002190 111.5039 341.3652 14.34219862909511
Epoch (UTC): 22 November 2014 11:45:48
Eccentricity: 0.0002190
inclination: 86.3983°
perigee height: 776 km
apogee height: 779 km
right ascension of ascending node: 53.7792°
argument of perigee: 111.5039°
revolutions per day: 14.34219862
mean anomaly at epoch: 341.3652°
orbit number at epoch: 90951

The dashed part of the orbit path shows where the satellite is in the earth's shadow,  

DLR